TimeEST,TemperatureF,Dew PointF,Humidity,Sea Level PressureIn,VisibilityMPH,Wind Direction,Wind SpeedMPH,Gust SpeedMPH,PrecipitationIn,Events,Conditions,WindDirDegrees,DateUTC
12:54 AM,32.0,19.0,59,29.92,10.0,West,10.4,-,N/A,,Mostly Cloudy,280,2012-11-25 05:54:00
1:54 AM,32.0,19.0,59,29.92,10.0,West,9.2,-,N/A,,Overcast,270,2012-11-25 06:54:00
2:54 AM,32.0,19.9,61,29.92,10.0,West,9.2,-,0.00,Snow,Light Snow,260,2012-11-25 07:54:00
3:54 AM,32.0,19.0,59,29.91,10.0,WSW,16.1,24.2,0.00,Snow,Light Snow,250,2012-11-25 08:54:00
4:54 AM,32.0,19.0,59,29.91,10.0,West,17.3,24.2,0.00,Snow,Light Snow,260,2012-11-25 09:54:00
5:54 AM,32.0,19.9,61,29.91,10.0,WSW,13.8,-,0.00,Snow,Light Snow,250,2012-11-25 10:54:00
6:54 AM,32.0,19.0,59,29.91,9.0,WSW,15.0,21.9,0.00,Snow,Light Snow,250,2012-11-25 11:54:00
7:54 AM,32.0,19.0,59,29.91,9.0,WSW,16.1,21.9,0.00,Snow,Light Snow,250,2012-11-25 12:54:00
8:54 AM,33.1,19.9,59,29.90,9.0,West,12.7,18.4,0.00,Snow,Light Snow,270,2012-11-25 13:54:00
9:54 AM,33.1,21.9,64,29.90,10.0,WSW,13.8,21.9,0.00,,Overcast,240,2012-11-25 14:54:00
10:54 AM,32.0,25.0,75,29.89,10.0,WSW,12.7,-,N/A,,Overcast,240,2012-11-25 15:54:00
11:20 AM,32.0,26.6,80,29.86,2.5,WSW,13.8,-,0.00,Snow,Light Snow,250,2012-11-25 16:20:00
11:30 AM,32.0,26.6,80,29.85,2.5,WSW,17.3,-,0.00,Snow,Light Snow,240,2012-11-25 16:30:00
11:54 AM,30.9,27.0,85,29.87,1.8,WSW,12.7,-,0.00,Snow,Light Snow,240,2012-11-25 16:54:00
12:05 PM,32.0,26.6,80,29.85,2.0,WSW,12.7,-,0.00,Snow,Light Snow,250,2012-11-25 17:05:00
12:16 PM,33.8,28.4,81,29.84,2.0,West,11.5,-,0.00,Snow,Light Snow,260,2012-11-25 17:16:00
12:20 PM,33.8,28.4,81,29.84,3.0,WSW,11.5,-,0.00,Snow,Light Snow,250,2012-11-25 17:20:00
12:54 PM,33.1,27.0,78,29.85,8.0,WSW,9.2,-,0.00,Snow,Light Snow,250,2012-11-25 17:54:00
1:29 PM,33.8,26.6,75,29.82,6.0,WSW,10.4,-,0.00,Snow,Light Snow,250,2012-11-25 18:29:00
1:54 PM,33.1,27.0,78,29.83,8.0,WSW,8.1,-,0.00,Snow,Light Snow,240,2012-11-25 18:54:00
2:54 PM,33.1,26.1,75,29.83,10.0,SW,9.2,-,0.00,Snow,Light Snow,220,2012-11-25 19:54:00
3:54 PM,33.1,27.0,78,29.83,5.0,WSW,9.2,-,0.00,Snow,Light Snow,240,2012-11-25 20:54:00
4:54 PM,32.0,27.0,82,29.84,5.0,WSW,8.1,-,0.00,Snow,Light Snow,240,2012-11-25 21:54:00
5:43 PM,32.0,26.6,80,29.83,5.0,WSW,8.1,-,0.00,Snow,Light Snow,240,2012-11-25 22:43:00
5:54 PM,32.0,27.0,82,29.86,5.0,WSW,9.2,-,0.00,Snow,Light Snow,240,2012-11-25 22:54:00
6:54 PM,32.0,26.1,79,29.86,6.0,SW,9.2,-,0.01,Snow,Light Snow,230,2012-11-25 23:54:00
7:54 PM,32.0,26.1,79,29.87,10.0,SW,11.5,-,0.00,,Overcast,230,2012-11-26 00:54:00
8:54 PM,33.1,26.1,75,29.87,9.0,SW,11.5,-,0.00,Snow,Light Snow,230,2012-11-26 01:54:00
9:54 PM,33.1,26.1,75,29.87,10.0,SW,10.4,-,0.00,,Overcast,230,2012-11-26 02:54:00
10:54 PM,32.0,26.1,79,29.87,10.0,SW,9.2,-,N/A,,Overcast,230,2012-11-26 03:54:00
11:54 PM,32.0,26.1,79,29.88,10.0,SW,10.4,-,N/A,,Overcast,230,2012-11-26 04:54:00